Starlink 1262

operational
NORAD ID: 45366 Int'l Des: 2020-019 Owner: SPXS Country: US Constellation: starlink
LEOCIRCULARSTARLINK_TYPE

Über Starlink 1262

Beschreibung wird geladen...

Live-Position

3D-Globus wird geladen...

Nächste Überflüge

Höhenverlauf

Altitude vs Time

uPlot chart will show altitude changes over time

Zweizeiliger Elementsatz

1 45366U 20019G 25257.34197515 .00001234 00000-0 10180-3 0 9995
2 45366 53.0514 238.2705 0001572 91.7260 268.3909 15.06370518303156
Epoch: 14. Sept. 2025 • Age: 32 hours

Aktueller Status

Höhe 559.0 km
Geschwindigkeit 7.58 km/s
Subsatellitenpunkt -34.48°S, 31.26°W
Startdatum 18. März 2020
Alter 5.4 years
Typ internet

Technische Details

Klassifizierung Payload
Masse 260.00 kg
Trockenmasse 248.00 kg
Gesamtmasse 260.00 kg
Länge 0.20 m
Durchmesser 2.80 m
Spannweite 9.00 m
Form Box + pan
Hersteller SPXS
Bus-Typ Starlink
Phasenstatus In Orbit
Besitzer/Staat SPXS/US

Große Konstellationen

Loading constellations...